Saint Bonnet de Bellac- Haute Vienne - France
Donnes mto: vendredi, 02/12/2011
Date Horaire Temp. E. Hum. E. P.atmo. Pluie Vent Direction Direction Ensoleilleme Solaire P. de rose Temp au vent Rafales
02/12/2011 00:00 11,3 C 82 % 1011,4 hPa 0,0 mm 11,9 km/h (2 Bft) S-SE 157 0 min 0 W/m 8,3 C 11,3 C 20,2 km/h (4 Bft)
02/12/2011 00:05 11,3 C 81 % 1011,4 hPa 0,0 mm 7,6 km/h (2 Bft) S-SO 202 0 min 0 W/m 8,2 C 11,3 C 10,8 km/h (2 Bft)
02/12/2011 00:10 11,2 C 81 % 1011,2 hPa 0,0 mm 9,4 km/h (2 Bft) SO 225 0 min 0 W/m 8,1 C 11,2 C 15,1 km/h (3 Bft)
02/12/2011 00:15 11,3 C 81 % 1011,3 hPa 0,0 mm 12,2 km/h (2 Bft) SO 225 0 min 0 W/m 8,2 C 11,3 C 14,8 km/h (3 Bft)
02/12/2011 00:20 11,2 C 80 % 1011,5 hPa 0,0 mm 9,4 km/h (2 Bft) SO 225 0 min 0 W/m 7,9 C 11,2 C 11,2 km/h (2 Bft)
02/12/2011 00:25 11,2 C 80 % 1011,5 hPa 0,0 mm 5,4 km/h (2 Bft) SO 225 0 min 0 W/m 7,9 C 11,2 C 8,3 km/h (2 Bft)
02/12/2011 00:30 11,1 C 81 % 1011,4 hPa 0,0 mm 8,6 km/h (2 Bft) SO 225 0 min 0 W/m 8,0 C 11,1 C 14,8 km/h (3 Bft)
02/12/2011 00:35 11,1 C 81 % 1011,3 hPa 0,0 mm 12,6 km/h (3 Bft) S-SO 202 0 min 0 W/m 8,0 C 11,1 C 15,5 km/h (3 Bft)
02/12/2011 00:40 11,1 C 82 % 1011,3 hPa 0,0 mm 9,4 km/h (2 Bft) SO 225 0 min 0 W/m 8,1 C 11,1 C 17,3 km/h (3 Bft)
02/12/2011 00:45 11,1 C 82 % 1011,0 hPa 0,0 mm 10,1 km/h (2 Bft) S-SO 202 0 min 0 W/m 8,1 C 11,1 C 15,1 km/h (3 Bft)
02/12/2011 00:50 11,0 C 82 % 1011,1 hPa 0,0 mm 3,2 km/h (1 Bft) S-SO 202 0 min 0 W/m 8,0 C 11,0 C 7,2 km/h (2 Bft)
02/12/2011 00:55 10,9 C 82 % 1011,0 hPa 0,0 mm 9,0 km/h (2 Bft) O 270 0 min 0 W/m 7,9 C 10,9 C 12,2 km/h (2 Bft)
02/12/2011 01:00 10,9 C 82 % 1010,9 hPa 0,0 mm 8,6 km/h (2 Bft) S-SE 157 0 min 0 W/m 7,9 C 10,9 C 13,7 km/h (3 Bft)
02/12/2011 01:05 10,9 C 82 % 1010,7 hPa 0,0 mm 14,0 km/h (3 Bft) S-SO 202 0 min 0 W/m 7,9 C 10,9 C 17,3 km/h (3 Bft)
02/12/2011 01:10 10,9 C 82 % 1010,7 hPa 0,0 mm 10,4 km/h (2 Bft) SO 225 0 min 0 W/m 7,9 C 10,9 C 18,4 km/h (3 Bft)
02/12/2011 01:15 10,9 C 81 % 1010,7 hPa 0,0 mm 7,2 km/h (2 Bft) O-SO 247 0 min 0 W/m 7,8 C 10,9 C 7,2 km/h (2 Bft)
02/12/2011 01:20 10,9 C 81 % 1010,8 hPa 0,0 mm 11,9 km/h (2 Bft) S-SO 202 0 min 0 W/m 7,8 C 10,9 C 15,5 km/h (3 Bft)
02/12/2011 01:25 10,8 C 80 % 1010,7 hPa 0,0 mm 6,5 km/h (2 Bft) S-SO 202 0 min 0 W/m 7,5 C 10,8 C 11,2 km/h (2 Bft)
02/12/2011 01:30 10,8 C 80 % 1010,8 hPa 0,0 mm 6,5 km/h (2 Bft) SO 225 0 min 0 W/m 7,5 C 10,8 C 6,5 km/h (2 Bft)
02/12/2011 01:35 10,8 C 80 % 1010,9 hPa 0,0 mm 9,7 km/h (2 Bft) O-SO 247 0 min 0 W/m 7,5 C 10,8 C 10,1 km/h (2 Bft)
02/12/2011 01:40 10,9 C 79 % 1010,9 hPa 0,0 mm 7,9 km/h (2 Bft) S-SO 202 0 min 0 W/m 7,4 C 10,9 C 10,4 km/h (2 Bft)
02/12/2011 01:45 10,9 C 79 % 1010,9 hPa 0,0 mm 9,0 km/h (2 Bft) SO 225 0 min 0 W/m 7,4 C 10,9 C 15,8 km/h (3 Bft)
02/12/2011 01:50 10,9 C 78 % 1011,0 hPa 0,0 mm 6,8 km/h (2 Bft) O-SO 247 0 min 0 W/m 7,2 C 10,9 C 9,7 km/h (2 Bft)
02/12/2011 01:55 11,1 C 78 % 1010,9 hPa 0,0 mm 13,7 km/h (3 Bft) S-SO 202 0 min 0 W/m 7,4 C 11,1 C 19,1 km/h (3 Bft)
02/12/2011 02:02 11,1 C 78 % 1010,8 hPa 0,0 mm 12,2 km/h (2 Bft) S-SO 202 0 min 0 W/m 7,4 C 11,1 C 16,6 km/h (3 Bft)
02/12/2011 02:05 11,1 C 77 % 1010,9 hPa 0,0 mm 11,5 km/h (2 Bft) S-SO 202 0 min 0 W/m 7,2 C 11,1 C 17,3 km/h (3 Bft)
02/12/2011 02:10 11,2 C 77 % 1011,0 hPa 0,0 mm 12,6 km/h (3 Bft) S-SO 202 0 min 0 W/m 7,3 C 11,2 C 20,2 km/h (4 Bft)
02/12/2011 02:15 11,2 C 77 % 1011,0 hPa 0,0 mm 6,8 km/h (2 Bft) S-SO 202 0 min 0 W/m 7,3 C 11,2 C 7,2 km/h (2 Bft)
02/12/2011 02:20 11,2 C 77 % 1011,0 hPa 0,0 mm 11,9 km/h (2 Bft) S-SO 202 0 min 0 W/m 7,3 C 11,2 C 11,9 km/h (2 Bft)
02/12/2011 02:25 11,2 C 77 % 1011,0 hPa 0,0 mm 11,9 km/h (2 Bft) N 360 0 min 0 W/m 7,3 C 11,2 C 11,9 km/h (2 Bft)
02/12/2011 02:30 11,2 C 77 % 1011,1 hPa 0,0 mm 12,2 km/h (2 Bft) SO 225 0 min 0 W/m 7,3 C 11,2 C 17,3 km/h (3 Bft)
02/12/2011 02:35 11,1 C 77 % 1011,1 hPa 0,0 mm 8,3 km/h (2 Bft) S-SO 202 0 min 0 W/m 7,2 C 11,1 C 11,9 km/h (2 Bft)
02/12/2011 02:40 11,1 C 77 % 1011,1 hPa 0,0 mm 16,6 km/h (3 Bft) S-SO 202 0 min 0 W/m 7,2 C 11,1 C 22,0 km/h (4 Bft)
02/12/2011 02:45 11,1 C 77 % 1011,1 hPa 0,0 mm 5,4 km/h (2 Bft) O-SO 247 0 min 0 W/m 7,2 C 11,1 C 6,1 km/h (2 Bft)
02/12/2011 02:50 11,1 C 77 % 1011,2 hPa 0,0 mm 11,5 km/h (2 Bft) S-SO 202 0 min 0 W/m 7,2 C 11,1 C 17,6 km/h (3 Bft)
02/12/2011 02:55 11,1 C 77 % 1011,1 hPa 0,0 mm 7,6 km/h (2 Bft) SO 225 0 min 0 W/m 7,2 C 11,1 C 12,6 km/h (3 Bft)
02/12/2011 03:00 11,1 C 77 % 1011,1 hPa 0,0 mm 8,6 km/h (2 Bft) SO 225 0 min 0 W/m 7,2 C 11,1 C 8,6 km/h (2 Bft)
02/12/2011 03:05 11,1 C 78 % 1011,1 hPa 0,0 mm 9,0 km/h (2 Bft) S-SO 202 0 min 0 W/m 7,4 C 11,1 C 16,9 km/h (3 Bft)
02/12/2011 03:10 11,1 C 77 % 1011,1 hPa 0,0 mm 9,7 km/h (2 Bft) S 180 0 min 0 W/m 7,2 C 11,1 C 11,5 km/h (2 Bft)
02/12/2011 03:15 11,1 C 78 % 1011,1 hPa 0,0 mm 6,5 km/h (2 Bft) SO 225 0 min 0 W/m 7,4 C 11,1 C 10,1 km/h (2 Bft)
02/12/2011 03:20 11,1 C 78 % 1011,1 hPa 0,0 mm 12,2 km/h (2 Bft) S-SO 202 0 min 0 W/m 7,4 C 11,1 C 12,2 km/h (2 Bft)
02/12/2011 03:25 11,1 C 78 % 1011,0 hPa 0,0 mm 6,5 km/h (2 Bft) SO 225 0 min 0 W/m 7,4 C 11,1 C 7,9 km/h (2 Bft)
02/12/2011 03:30 10,9 C 78 % 1011,0 hPa 0,0 mm 7,6 km/h (2 Bft) SO 225 0 min 0 W/m 7,2 C 10,9 C 11,5 km/h (2 Bft)
02/12/2011 03:35 10,9 C 78 % 1011,1 hPa 0,0 mm 7,9 km/h (2 Bft) SO 225 0 min 0 W/m 7,2 C 10,9 C 10,8 km/h (2 Bft)
02/12/2011 03:40 10,9 C 78 % 1011,1 hPa 0,0 mm 4,7 km/h (1 Bft) SO 225 0 min 0 W/m 7,2 C 10,9 C 6,5 km/h (2 Bft)
02/12/2011 03:45 10,9 C 78 % 1011,1 hPa 0,0 mm 3,2 km/h (1 Bft) SO 225 0 min 0 W/m 7,2 C 10,9 C 9,0 km/h (2 Bft)
02/12/2011 03:50 10,9 C 78 % 1011,2 hPa 0,0 mm 7,2 km/h (2 Bft) O-SO 247 0 min 0 W/m 7,2 C 10,9 C 9,4 km/h (2 Bft)
02/12/2011 03:55 10,9 C 78 % 1011,2 hPa 0,0 mm 6,8 km/h (2 Bft) SO 225 0 min 0 W/m 7,2 C 10,9 C 10,1 km/h (2 Bft)
02/12/2011 04:00 10,9 C 79 % 1011,3 hPa 0,0 mm 3,2 km/h (1 Bft) O-SO 247 0 min 0 W/m 7,4 C 10,9 C 6,5 km/h (2 Bft)
02/12/2011 04:05 10,9 C 79 % 1011,3 hPa 0,0 mm 8,6 km/h (2 Bft) O-SO 247 0 min 0 W/m 7,4 C 10,9 C 12,2 km/h (2 Bft)
02/12/2011 04:10 10,9 C 79 % 1011,3 hPa 0,0 mm 3,6 km/h (1 Bft) SO 225 0 min 0 W/m 7,4 C 10,9 C 3,6 km/h (1 Bft)
02/12/2011 04:15 10,8 C 80 % 1011,3 hPa 0,0 mm 5,4 km/h (2 Bft) SO 225 0 min 0 W/m 7,5 C 10,8 C 7,9 km/h (2 Bft)
02/12/2011 04:20 10,8 C 80 % 1011,3 hPa 0,0 mm 2,9 km/h (1 Bft) S-SO 202 0 min 0 W/m 7,5 C 10,8 C 7,2 km/h (2 Bft)
02/12/2011 04:25 10,8 C 80 % 1011,4 hPa 0,0 mm 5,8 km/h (2 Bft) SO 225 0 min 0 W/m 7,5 C 10,8 C 12,2 km/h (2 Bft)
02/12/2011 04:30 10,6 C 80 % 1011,3 hPa 0,0 mm 5,0 km/h (1 Bft) S-SO 202 0 min 0 W/m 7,3 C 10,6 C 7,6 km/h (2 Bft)
02/12/2011 04:35 10,6 C 81 % 1011,4 hPa 0,0 mm 4,3 km/h (1 Bft) SO 225 0 min 0 W/m 7,5 C 10,6 C 4,3 km/h (1 Bft)
02/12/2011 04:40 10,4 C 83 % 1011,5 hPa 0,0 mm 2,5 km/h (1 Bft) S-SO 202 0 min 0 W/m 7,6 C 10,4 C 7,2 km/h (2 Bft)
02/12/2011 04:45 10,3 C 83 % 1011,6 hPa 0,0 mm 4,3 km/h (1 Bft) SO 225 0 min 0 W/m 7,5 C 10,3 C 4,3 km/h (1 Bft)
02/12/2011 04:50 10,1 C 84 % 1011,6 hPa 0,1 mm 4,7 km/h (1 Bft) SO 225 0 min 0 W/m 7,5 C 10,1 C 9,0 km/h (2 Bft)
02/12/2011 04:55 9,9 C 84 % 1011,7 hPa 0,0 mm 0,0 km/h (0 Bft) O 270 0 min 0 W/m 7,3 C 9,9 C 0,0 km/h (0 Bft)
02/12/2011 05:00 9,8 C 85 % 1011,8 hPa 0,0 mm 1,4 km/h (1 Bft) O-SO 247 0 min 0 W/m 7,4 C 9,8 C 6,1 km/h (2 Bft)
02/12/2011 05:05 9,8 C 86 % 1011,9 hPa 0,0 mm 2,2 km/h (1 Bft) SO 225 0 min 0 W/m 7,6 C 9,8 C 4,0 km/h (1 Bft)
02/12/2011 05:10 9,6 C 87 % 1011,9 hPa 0,1 mm 1,8 km/h (1 Bft) SO 225 0 min 0 W/m 7,5 C 9,6 C 2,9 km/h (1 Bft)
02/12/2011 05:15 9,4 C 88 % 1011,9 hPa 0,0 mm 5,8 km/h (2 Bft) SO 225 0 min 0 W/m 7,5 C 8,8 C 6,5 km/h (2 Bft)
02/12/2011 05:20 9,3 C 88 % 1012,0 hPa 0,1 mm 2,2 km/h (1 Bft) SO 225 0 min 0 W/m 7,4 C 9,3 C 4,3 km/h (1 Bft)
02/12/2011 05:25 9,2 C 89 % 1012,1 hPa 0,0 mm 4,0 km/h (1 Bft) S-SO 202 0 min 0 W/m 7,5 C 9,2 C 7,2 km/h (2 Bft)
02/12/2011 05:30 9,1 C 89 % 1012,3 hPa 0,0 mm 2,5 km/h (1 Bft) O-SO 247 0 min 0 W/m 7,4 C 9,1 C 4,3 km/h (1 Bft)
02/12/2011 05:35 9,1 C 89 % 1012,4 hPa 0,1 mm 2,9 km/h (1 Bft) SO 225 0 min 0 W/m 7,4 C 9,1 C 4,3 km/h (1 Bft)
02/12/2011 05:40 8,9 C 90 % 1012,5 hPa 0,1 mm 2,2 km/h (1 Bft) SO 225 0 min 0 W/m 7,4 C 8,9 C 4,3 km/h (1 Bft)
02/12/2011 05:45 8,9 C 90 % 1012,6 hPa 0,1 mm 1,4 km/h (1 Bft) SO 225 0 min 0 W/m 7,4 C 8,9 C 3,2 km/h (1 Bft)
02/12/2011 05:50 8,8 C 91 % 1012,7 hPa 0,1 mm 2,5 km/h (1 Bft) S-SO 202 0 min 0 W/m 7,4 C 8,8 C 6,5 km/h (2 Bft)
02/12/2011 05:55 8,8 C 91 % 1012,7 hPa 0,1 mm 3,2 km/h (1 Bft) S-SO 202 0 min 0 W/m 7,4 C 8,8 C 3,6 km/h (1 Bft)
02/12/2011 06:00 8,8 C 91 % 1012,7 hPa 0,1 mm 3,6 km/h (1 Bft) SO 225 0 min 0 W/m 7,4 C 8,8 C 7,2 km/h (2 Bft)
02/12/2011 06:05 8,8 C 91 % 1012,6 hPa 0,1 mm 4,3 km/h (1 Bft) SO 225 0 min 0 W/m 7,4 C 8,8 C 8,3 km/h (2 Bft)
02/12/2011 06:10 8,8 C 91 % 1012,7 hPa 0,1 mm 1,8 km/h (1 Bft) SO 225 0 min 0 W/m 7,4 C 8,8 C 4,0 km/h (1 Bft)
02/12/2011 06:15 8,6 C 92 % 1012,6 hPa 0,1 mm 2,2 km/h (1 Bft) S-SO 202 0 min 0 W/m 7,4 C 8,6 C 6,5 km/h (2 Bft)
02/12/2011 06:20 8,6 C 92 % 1012,5 hPa 0,0 mm 1,4 km/h (1 Bft) S-SO 202 0 min 0 W/m 7,4 C 8,6 C 4,0 km/h (1 Bft)
02/12/2011 06:25 8,6 C 92 % 1012,5 hPa 0,1 mm 1,4 km/h (1 Bft) S-SO 202 0 min 0 W/m 7,4 C 8,6 C 3,6 km/h (1 Bft)
02/12/2011 06:30 8,6 C 92 % 1012,7 hPa 0,1 mm 3,2 km/h (1 Bft) S 180 0 min 0 W/m 7,4 C 8,6 C 4,3 km/h (1 Bft)
02/12/2011 06:35 8,5 C 92 % 1012,6 hPa 0,0 mm 0,0 km/h (0 Bft) S-SO 202 0 min 0 W/m 7,3 C 8,5 C 0,0 km/h (0 Bft)
02/12/2011 06:40 8,5 C 92 % 1012,6 hPa 0,1 mm 0,0 km/h (0 Bft) S-SO 202 0 min 0 W/m 7,3 C 8,5 C 0,0 km/h (0 Bft)
02/12/2011 06:45 8,5 C 92 % 1012,7 hPa 0,0 mm 0,0 km/h (0 Bft) S-SO 202 0 min 0 W/m 7,3 C 8,5 C 0,0 km/h (0 Bft)
02/12/2011 06:50 8,4 C 92 % 1012,7 hPa 0,1 mm 0,0 km/h (0 Bft) S-SO 202 0 min 0 W/m 7,2 C 8,4 C 0,0 km/h (0 Bft)
02/12/2011 06:55 8,4 C 92 % 1012,8 hPa 0,1 mm 0,0 km/h (0 Bft) S-SO 202 0 min 0 W/m 7,2 C 8,4 C 0,0 km/h (0 Bft)
02/12/2011 07:00 8,4 C 92 % 1012,8 hPa 0,1 mm 0,0 km/h (0 Bft) S-SO 202 0 min 0 W/m 7,2 C 8,4 C 0,0 km/h (0 Bft)
02/12/2011 07:05 8,4 C 92 % 1012,8 hPa 0,0 mm 1,1 km/h (1 Bft) S-SO 202 0 min 0 W/m 7,2 C 8,4 C 4,3 km/h (1 Bft)
02/12/2011 07:10 8,3 C 92 % 1012,7 hPa 0,1 mm 2,2 km/h (1 Bft) S 180 0 min 0 W/m 7,1 C 8,3 C 4,3 km/h (1 Bft)
02/12/2011 07:15 8,3 C 93 % 1012,7 hPa 0,0 mm 0,7 km/h (0 Bft) S-SO 202 0 min 0 W/m 7,2 C 8,3 C 4,0 km/h (1 Bft)
02/12/2011 07:20 8,3 C 93 % 1012,9 hPa 0,1 mm 0,0 km/h (0 Bft) S-SO 202 0 min 0 W/m 7,2 C 8,3 C 0,0 km/h (0 Bft)
02/12/2011 07:25 8,3 C 93 % 1013,0 hPa 0,0 mm 2,9 km/h (1 Bft) S-SE 157 0 min 0 W/m 7,2 C 8,3 C 4,3 km/h (1 Bft)
02/12/2011 07:30 8,3 C 92 % 1013,1 hPa 0,1 mm 0,0 km/h (0 Bft) S-SO 202 0 min 0 W/m 7,1 C 8,3 C 0,0 km/h (0 Bft)
02/12/2011 07:35 8,3 C 92 % 1013,3 hPa 0,0 mm 0,0 km/h (0 Bft) S-SO 202 0 min 0 W/m 7,1 C 8,3 C 0,0 km/h (0 Bft)
02/12/2011 07:40 8,3 C 92 % 1013,5 hPa 0,1 mm 0,0 km/h (0 Bft) S-SO 202 0 min 0 W/m 7,1 C 8,3 C 0,0 km/h (0 Bft)
02/12/2011 07:45 8,3 C 92 % 1013,5 hPa 0,1 mm 0,0 km/h (0 Bft) S-SO 202 0 min 0 W/m 7,1 C 8,3 C 0,0 km/h (0 Bft)
02/12/2011 07:50 8,3 C 92 % 1013,3 hPa 0,1 mm 1,8 km/h (1 Bft) SE 135 0 min 0 W/m 7,1 C 8,3 C 1,8 km/h (1 Bft)
02/12/2011 07:55 8,3 C 92 % 1013,5 hPa 0,0 mm 0,4 km/h (0 Bft) S-SE 157 0 min 0 W/m 7,1 C 8,3 C 0,4 km/h (0 Bft)
02/12/2011 08:00 8,3 C 92 % 1013,4 hPa 0,0 mm 0,0 km/h (0 Bft) S-SE 157 0 min 0 W/m 7,1 C 8,3 C 0,0 km/h (0 Bft)
02/12/2011 08:05 8,3 C 92 % 1013,6 hPa 0,1 mm 0,7 km/h (0 Bft) S-SE 157 0 min 0 W/m 7,1 C 8,3 C 1,4 km/h (1 Bft)
02/12/2011 08:10 8,3 C 92 % 1013,5 hPa 0,0 mm 1,8 km/h (1 Bft) SE 135 0 min 0 W/m 7,1 C 8,3 C 4,3 km/h (1 Bft)
02/12/2011 08:15 8,3 C 92 % 1013,6 hPa 0,0 mm 0,4 km/h (0 Bft) S-SE 157 0 min 0 W/m 7,1 C 8,3 C 3,6 km/h (1 Bft)
02/12/2011 08:20 8,3 C 92 % 1013,7 hPa 0,0 mm 3,6 km/h (1 Bft) SE 135 0 min 0 W/m 7,1 C 8,3 C 3,6 km/h (1 Bft)
02/12/2011 08:25 8,3 C 92 % 1013,7 hPa 0,1 mm 2,9 km/h (1 Bft) SE 135 0 min 0 W/m 7,1 C 8,3 C 4,3 km/h (1 Bft)
02/12/2011 08:30 8,3 C 92 % 1013,6 hPa 0,0 mm 3,2 km/h (1 Bft) E-SE 112 0 min 0 W/m 7,1 C 8,3 C 7,6 km/h (2 Bft)
02/12/2011 08:35 8,3 C 92 % 1013,5 hPa 0,0 mm 3,6 km/h (1 Bft) E-SE 112 0 min 0 W/m 7,1 C 8,3 C 4,3 km/h (1 Bft)
02/12/2011 08:40 8,3 C 92 % 1013,6 hPa 0,0 mm 1,4 km/h (1 Bft) S-SE 157 0 min 0 W/m 7,1 C 8,3 C 4,7 km/h (1 Bft)
02/12/2011 08:45 8,3 C 92 % 1013,6 hPa 0,0 mm 4,7 km/h (1 Bft) SE 135 0 min 0 W/m 7,1 C 7,9 C 6,5 km/h (2 Bft)
02/12/2011 08:50 8,3 C 92 % 1013,7 hPa 0,0 mm 3,2 km/h (1 Bft) SE 135 0 min 0 W/m 7,1 C 8,3 C 4,0 km/h (1 Bft)
02/12/2011 08:55 8,3 C 92 % 1013,7 hPa 0,0 mm 0,0 km/h (0 Bft) S-SE 157 0 min 0 W/m 7,1 C 8,3 C 0,0 km/h (0 Bft)
02/12/2011 09:00 8,2 C 92 % 1013,8 hPa 0,0 mm 1,4 km/h (1 Bft) SE 135 0 min 0 W/m 7,0 C 8,2 C 3,6 km/h (1 Bft)
02/12/2011 09:05 8,2 C 92 % 1014,1 hPa 0,0 mm 0,0 km/h (0 Bft) SE 135 0 min 0 W/m 7,0 C 8,2 C 0,0 km/h (0 Bft)
02/12/2011 09:10 8,2 C 92 % 1014,4 hPa 0,0 mm 0,0 km/h (0 Bft) SE 135 0 min 0 W/m 7,0 C 8,2 C 0,0 km/h (0 Bft)
02/12/2011 09:15 8,1 C 93 % 1014,5 hPa 0,0 mm 0,0 km/h (0 Bft) SE 135 0 min 0 W/m 7,0 C 8,1 C 0,0 km/h (0 Bft)
02/12/2011 09:20 8,1 C 92 % 1014,7 hPa 0,0 mm 0,0 km/h (0 Bft) SE 135 0 min 0 W/m 6,9 C 8,1 C 0,0 km/h (0 Bft)
02/12/2011 09:25 8,1 C 92 % 1014,8 hPa 0,0 mm 0,0 km/h (0 Bft) SE 135 0 min 0 W/m 6,9 C 8,1 C 0,0 km/h (0 Bft)
02/12/2011 09:30 8,1 C 92 % 1014,9 hPa 0,0 mm 0,0 km/h (0 Bft) S-SE 157 0 min 0 W/m 6,9 C 8,1 C 0,0 km/h (0 Bft)
02/12/2011 09:35 8,2 C 93 % 1015,1 hPa 0,0 mm 0,0 km/h (0 Bft) S-SE 157 0 min 0 W/m 7,1 C 8,2 C 0,0 km/h (0 Bft)
02/12/2011 09:40 8,2 C 92 % 1015,0 hPa 0,0 mm 0,0 km/h (0 Bft) S-SE 157 0 min 0 W/m 7,0 C 8,2 C 0,0 km/h (0 Bft)
02/12/2011 09:45 8,2 C 93 % 1015,0 hPa 0,0 mm 0,0 km/h (0 Bft) SE 135 0 min 0 W/m 7,1 C 8,2 C 0,0 km/h (0 Bft)
02/12/2011 09:50 8,3 C 93 % 1015,2 hPa 0,0 mm 0,0 km/h (0 Bft) S-SE 157 0 min 0 W/m 7,2 C 8,3 C 0,0 km/h (0 Bft)
02/12/2011 09:55 8,3 C 93 % 1015,4 hPa 0,0 mm 0,0 km/h (0 Bft) S-SE 157 0 min 0 W/m 7,2 C 8,3 C 0,0 km/h (0 Bft)
02/12/2011 10:00 8,3 C 93 % 1015,4 hPa 0,0 mm 0,0 km/h (0 Bft) S-SE 157 0 min 0 W/m 7,2 C 8,3 C 0,0 km/h (0 Bft)
02/12/2011 10:05 8,3 C 93 % 1015,6 hPa 0,0 mm 0,0 km/h (0 Bft) O-SO 247 0 min 0 W/m 7,2 C 8,3 C 0,0 km/h (0 Bft)
02/12/2011 10:10 8,3 C 93 % 1015,8 hPa 0,0 mm 1,1 km/h (1 Bft) SO 225 0 min 0 W/m 7,2 C 8,3 C 4,0 km/h (1 Bft)
02/12/2011 10:15 8,4 C 93 % 1015,8 hPa 0,0 mm 0,7 km/h (0 Bft) SO 225 0 min 0 W/m 7,3 C 8,4 C 4,0 km/h (1 Bft)
02/12/2011 10:20 8,4 C 93 % 1015,8 hPa 0,0 mm 1,4 km/h (1 Bft) SO 225 0 min 0 W/m 7,3 C 8,4 C 4,0 km/h (1 Bft)
02/12/2011 10:25 8,5 C 93 % 1015,8 hPa 0,0 mm 3,2 km/h (1 Bft) SO 225 0 min 0 W/m 7,4 C 8,5 C 4,3 km/h (1 Bft)
02/12/2011 10:30 8,5 C 93 % 1015,9 hPa 0,0 mm 1,4 km/h (1 Bft) SO 225 0 min 0 W/m 7,4 C 8,5 C 4,3 km/h (1 Bft)
02/12/2011 10:35 8,6 C 93 % 1016,0 hPa 0,0 mm 0,7 km/h (0 Bft) O-SO 247 0 min 0 W/m 7,5 C 8,6 C 4,0 km/h (1 Bft)
02/12/2011 10:40 8,6 C 93 % 1016,0 hPa 0,0 mm 2,5 km/h (1 Bft) SO 225 0 min 0 W/m 7,5 C 8,6 C 3,2 km/h (1 Bft)
02/12/2011 10:45 8,6 C 93 % 1016,1 hPa 0,0 mm 3,2 km/h (1 Bft) SO 225 0 min 0 W/m 7,5 C 8,6 C 3,6 km/h (1 Bft)
02/12/2011 10:50 8,6 C 93 % 1016,1 hPa 0,0 mm 1,4 km/h (1 Bft) O-SO 247 0 min 0 W/m 7,5 C 8,6 C 4,0 km/h (1 Bft)
02/12/2011 10:55 8,8 C 94 % 1016,1 hPa 0,0 mm 2,2 km/h (1 Bft) S-SO 202 0 min 0 W/m 7,9 C 8,8 C 3,2 km/h (1 Bft)
02/12/2011 11:00 8,8 C 94 % 1016,2 hPa 0,0 mm 1,1 km/h (1 Bft) SO 225 0 min 0 W/m 7,9 C 8,8 C 1,1 km/h (1 Bft)
02/12/2011 11:05 8,9 C 94 % 1016,2 hPa 0,0 mm 0,7 km/h (0 Bft) SO 225 0 min 0 W/m 8,0 C 8,9 C 3,6 km/h (1 Bft)
02/12/2011 11:10 8,9 C 94 % 1016,2 hPa 0,0 mm 4,3 km/h (1 Bft) O-SO 247 0 min 0 W/m 8,0 C 8,9 C 4,3 km/h (1 Bft)
02/12/2011 11:15 8,8 C 93 % 1016,4 hPa 0,0 mm 4,7 km/h (1 Bft) SO 225 0 min 0 W/m 7,7 C 8,5 C 8,3 km/h (2 Bft)
02/12/2011 11:20 8,9 C 93 % 1016,5 hPa 0,0 mm 3,2 km/h (1 Bft) SO 225 0 min 0 W/m 7,8 C 8,9 C 6,5 km/h (2 Bft)
02/12/2011 11:25 8,8 C 93 % 1016,6 hPa 0,0 mm 4,0 km/h (1 Bft) SO 225 0 min 0 W/m 7,7 C 8,8 C 7,6 km/h (2 Bft)
02/12/2011 11:30 8,8 C 93 % 1016,6 hPa 0,0 mm 4,0 km/h (1 Bft) SO 225 0 min 0 W/m 7,7 C 8,8 C 4,3 km/h (1 Bft)
02/12/2011 11:35 8,8 C 93 % 1016,7 hPa 0,0 mm 5,0 km/h (1 Bft) SO 225 0 min 0 W/m 7,7 C 8,4 C 5,0 km/h (1 Bft)
02/12/2011 11:40 8,8 C 93 % 1016,8 hPa 0,0 mm 1,4 km/h (1 Bft) SO 225 0 min 0 W/m 7,7 C 8,8 C 3,2 km/h (1 Bft)
02/12/2011 11:45 8,8 C 93 % 1016,7 hPa 0,0 mm 0,4 km/h (0 Bft) SO 225 0 min 0 W/m 7,7 C 8,8 C 0,4 km/h (0 Bft)
02/12/2011 11:50 8,8 C 93 % 1016,7 hPa 0,0 mm 0,4 km/h (0 Bft) SO 225 0 min 0 W/m 7,7 C 8,8 C 3,2 km/h (1 Bft)
02/12/2011 11:55 8,9 C 93 % 1016,7 hPa 0,0 mm 3,6 km/h (1 Bft) SO 225 0 min 0 W/m 7,8 C 8,9 C 6,8 km/h (2 Bft)
02/12/2011 12:00 9,0 C 93 % 1016,5 hPa 0,0 mm 1,4 km/h (1 Bft) SO 225 0 min 0 W/m 7,9 C 9,0 C 4,0 km/h (1 Bft)
02/12/2011 12:05 9,1 C 93 % 1016,4 hPa 0,0 mm 3,2 km/h (1 Bft) S-SO 202 0 min 0 W/m 8,0 C 9,1 C 4,3 km/h (1 Bft)
02/12/2011 12:10 9,2 C 93 % 1016,4 hPa 0,0 mm 1,8 km/h (1 Bft) SO 225 0 min 0 W/m 8,1 C 9,2 C 4,0 km/h (1 Bft)
02/12/2011 12:15 9,3 C 92 % 1016,4 hPa 0,0 mm 5,0 km/h (1 Bft) SO 225 0 min 0 W/m 8,1 C 9,0 C 7,6 km/h (2 Bft)
02/12/2011 12:20 9,4 C 92 % 1016,5 hPa 0,0 mm 1,8 km/h (1 Bft) S-SO 202 0 min 0 W/m 8,2 C 9,4 C 4,0 km/h (1 Bft)
02/12/2011 12:25 9,4 C 91 % 1016,5 hPa 0,0 mm 4,7 km/h (1 Bft) SO 225 0 min 0 W/m 8,0 C 9,2 C 4,7 km/h (1 Bft)
02/12/2011 12:30 9,4 C 91 % 1016,5 hPa 0,0 mm 4,3 km/h (1 Bft) SO 225 0 min 0 W/m 8,0 C 9,4 C 5,8 km/h (2 Bft)
02/12/2011 12:35 9,5 C 91 % 1016,4 hPa 0,0 mm 4,3 km/h (1 Bft) N 360 0 min 0 W/m 8,1 C 9,5 C 4,3 km/h (1 Bft)
02/12/2011 12:40 9,6 C 91 % 1016,5 hPa 0,0 mm 2,9 km/h (1 Bft) SO 225 0 min 0 W/m 8,2 C 9,6 C 3,6 km/h (1 Bft)
02/12/2011 12:45 9,7 C 90 % 1016,5 hPa 0,0 mm 0,0 km/h (0 Bft) SO 225 0 min 0 W/m 8,1 C 9,7 C 0,0 km/h (0 Bft)
02/12/2011 12:50 9,8 C 90 % 1016,5 hPa 0,0 mm 0,4 km/h (0 Bft) S-SO 202 0 min 0 W/m 8,2 C 9,8 C 4,0 km/h (1 Bft)
02/12/2011 12:55 9,7 C 90 % 1016,6 hPa 0,0 mm 0,0 km/h (0 Bft) O-SO 247 0 min 0 W/m 8,1 C 9,7 C 0,0 km/h (0 Bft)
02/12/2011 13:00 9,7 C 90 % 1016,5 hPa 0,0 mm 0,4 km/h (0 Bft) SO 225 0 min 0 W/m 8,1 C 9,7 C 3,2 km/h (1 Bft)
02/12/2011 13:05 9,6 C 90 % 1016,4 hPa 0,0 mm 3,2 km/h (1 Bft) S-SO 202 0 min 0 W/m 8,0 C 9,6 C 4,3 km/h (1 Bft)
02/12/2011 13:10 9,6 C 90 % 1016,4 hPa 0,0 mm 4,7 km/h (1 Bft) SO 225 0 min 0 W/m 8,0 C 9,4 C 6,5 km/h (2 Bft)
02/12/2011 13:15 9,8 C 91 % 1016,4 hPa 0,0 mm 3,6 km/h (1 Bft) S-SO 202 0 min 0 W/m 8,4 C 9,8 C 6,5 km/h (2 Bft)
02/12/2011 13:20 10,3 C 91 % 1016,5 hPa 0,0 mm 1,1 km/h (1 Bft) S 180 0 min 0 W/m 8,9 C 10,3 C 1,1 km/h (1 Bft)
02/12/2011 13:25 10,8 C 91 % 1016,5 hPa 0,0 mm 0,4 km/h (0 Bft) S-SO 202 0 min 0 W/m 9,4 C 10,8 C 0,4 km/h (0 Bft)
02/12/2011 13:30 11,1 C 90 % 1016,5 hPa 0,0 mm 0,0 km/h (0 Bft) SO 225 0 min 0 W/m 9,5 C 11,1 C 3,2 km/h (1 Bft)
02/12/2011 13:35 11,1 C 88 % 1016,5 hPa 0,0 mm 0,4 km/h (0 Bft) O-SO 247 0 min 0 W/m 9,2 C 11,1 C 2,9 km/h (1 Bft)
02/12/2011 13:40 11,0 C 87 % 1016,5 hPa 0,0 mm 0,0 km/h (0 Bft) O 270 0 min 0 W/m 8,9 C 11,0 C 0,0 km/h (0 Bft)
02/12/2011 13:45 10,9 C 87 % 1016,4 hPa 0,0 mm 0,0 km/h (0 Bft) O 270 0 min 0 W/m 8,8 C 10,9 C 0,0 km/h (0 Bft)
02/12/2011 13:50 10,8 C 86 % 1016,4 hPa 0,0 mm 1,1 km/h (1 Bft) O-SO 247 0 min 0 W/m 8,6 C 10,8 C 1,1 km/h (1 Bft)
02/12/2011 13:55 10,7 C 87 % 1016,4 hPa 0,0 mm 0,4 km/h (0 Bft) O-SO 247 0 min 0 W/m 8,6 C 10,7 C 0,4 km/h (0 Bft)
02/12/2011 14:00 10,8 C 87 % 1016,5 hPa 0,0 mm 2,2 km/h (1 Bft) SO 225 0 min 0 W/m 8,7 C 10,8 C 4,0 km/h (1 Bft)
02/12/2011 14:05 11,2 C 87 % 1016,6 hPa 0,0 mm 4,3 km/h (1 Bft) NO 315 0 min 0 W/m 9,1 C 11,2 C 8,6 km/h (2 Bft)
02/12/2011 14:10 11,5 C 86 % 1016,6 hPa 0,0 mm 2,5 km/h (1 Bft) NO 315 0 min 0 W/m 9,2 C 11,5 C 4,3 km/h (1 Bft)
02/12/2011 14:15 11,6 C 85 % 1016,6 hPa 0,0 mm 0,4 km/h (0 Bft) NO 315 0 min 0 W/m 9,2 C 11,6 C 3,6 km/h (1 Bft)
02/12/2011 14:20 11,6 C 84 % 1016,7 hPa 0,0 mm 0,0 km/h (0 Bft) O-NO 292 0 min 0 W/m 9,0 C 11,6 C 0,0 km/h (0 Bft)
02/12/2011 14:25 11,5 C 83 % 1016,6 hPa 0,0 mm 0,0 km/h (0 Bft) O-NO 292 0 min 0 W/m 8,7 C 11,5 C 0,0 km/h (0 Bft)
02/12/2011 14:30 11,3 C 83 % 1016,5 hPa 0,0 mm 0,0 km/h (0 Bft) O-NO 292 0 min 0 W/m 8,5 C 11,3 C 0,0 km/h (0 Bft)
02/12/2011 14:35 11,3 C 82 % 1016,5 hPa 0,0 mm 0,0 km/h (0 Bft) O-NO 292 0 min 0 W/m 8,3 C 11,3 C 0,0 km/h (0 Bft)
02/12/2011 14:40 11,3 C 83 % 1016,5 hPa 0,0 mm 0,0 km/h (0 Bft) O 270 0 min 0 W/m 8,5 C 11,3 C 0,0 km/h (0 Bft)
02/12/2011 14:45 11,4 C 83 % 1016,6 hPa 0,0 mm 4,0 km/h (1 Bft) NO 315 0 min 0 W/m 8,6 C 11,4 C 4,0 km/h (1 Bft)
02/12/2011 14:50 11,7 C 83 % 1016,6 hPa 0,0 mm 7,9 km/h (2 Bft) NO 315 0 min 0 W/m 8,9 C 11,7 C 14,4 km/h (3 Bft)
02/12/2011 14:55 11,8 C 83 % 1016,6 hPa 0,0 mm 4,7 km/h (1 Bft) O-NO 292 0 min 0 W/m 9,0 C 11,8 C 10,1 km/h (2 Bft)
02/12/2011 15:00 11,7 C 82 % 1016,6 hPa 0,0 mm 4,0 km/h (1 Bft) N-NO 337 0 min 0 W/m 8,7 C 11,7 C 6,1 km/h (2 Bft)
02/12/2011 15:05 11,5 C 82 % 1016,5 hPa 0,0 mm 0,0 km/h (0 Bft) N-NO 337 0 min 0 W/m 8,5 C 11,5 C 0,0 km/h (0 Bft)
02/12/2011 15:10 11,4 C 82 % 1016,6 hPa 0,0 mm 1,1 km/h (1 Bft) NO 315 0 min 0 W/m 8,4 C 11,4 C 3,6 km/h (1 Bft)
02/12/2011 15:15 11,2 C 82 % 1016,7 hPa 0,0 mm 0,0 km/h (0 Bft) NO 315 0 min 0 W/m 8,2 C 11,2 C 1,4 km/h (1 Bft)
02/12/2011 15:20 11,1 C 83 % 1016,9 hPa 0,0 mm 0,0 km/h (0 Bft) NO 315 0 min 0 W/m 8,3 C 11,1 C 0,0 km/h (0 Bft)
02/12/2011 15:25 11,0 C 83 % 1017,0 hPa 0,0 mm 10,4 km/h (2 Bft) N-NO 337 0 min 0 W/m 8,2 C 11,0 C 18,7 km/h (3 Bft)
02/12/2011 15:30 10,8 C 82 % 1017,0 hPa 0,0 mm 0,4 km/h (0 Bft) N-NO 337 0 min 0 W/m 7,9 C 10,8 C 0,4 km/h (0 Bft)
02/12/2011 15:35 10,6 C 83 % 1017,1 hPa 0,0 mm 0,7 km/h (0 Bft) O 270 0 min 0 W/m 7,8 C 10,6 C 4,3 km/h (1 Bft)
02/12/2011 15:40 10,5 C 83 % 1017,2 hPa 0,0 mm 0,0 km/h (0 Bft) NO 315 0 min 0 W/m 7,7 C 10,5 C 3,2 km/h (1 Bft)
02/12/2011 15:45 10,4 C 83 % 1017,2 hPa 0,0 mm 7,6 km/h (2 Bft) NO 315 0 min 0 W/m 7,6 C 10,4 C 12,2 km/h (2 Bft)
02/12/2011 15:50 10,4 C 83 % 1017,2 hPa 0,0 mm 2,2 km/h (1 Bft) N-NO 337 0 min 0 W/m 7,6 C 10,4 C 4,3 km/h (1 Bft)
02/12/2011 15:55 10,3 C 83 % 1017,3 hPa 0,0 mm 8,3 km/h (2 Bft) NO 315 0 min 0 W/m 7,5 C 10,3 C 12,6 km/h (3 Bft)
02/12/2011 16:00 10,3 C 82 % 1017,4 hPa 0,0 mm 3,2 km/h (1 Bft) N-NO 337 0 min 0 W/m 7,4 C 10,3 C 8,3 km/h (2 Bft)
02/12/2011 16:05 10,3 C 82 % 1017,5 hPa 0,0 mm 5,0 km/h (1 Bft) N-NO 337 0 min 0 W/m 7,4 C 10,3 C 6,5 km/h (2 Bft)
02/12/2011 16:10 10,2 C 82 % 1017,5 hPa 0,0 mm 5,0 km/h (1 Bft) NO 315 0 min 0 W/m 7,3 C 10,2 C 9,0 km/h (2 Bft)
02/12/2011 16:15 10,2 C 82 % 1017,6 hPa 0,0 mm 3,2 km/h (1 Bft) N-NO 337 0 min 0 W/m 7,3 C 10,2 C 3,6 km/h (1 Bft)
02/12/2011 16:20 10,1 C 81 % 1017,8 hPa 0,0 mm 0,7 km/h (0 Bft) NO 315 0 min 0 W/m 7,0 C 10,1 C 4,3 km/h (1 Bft)
02/12/2011 16:25 9,9 C 81 % 1017,7 hPa 0,0 mm 0,0 km/h (0 Bft) NO 315 0 min 0 W/m 6,8 C 9,9 C 0,0 km/h (0 Bft)
02/12/2011 16:30 9,8 C 82 % 1017,8 hPa 0,0 mm 2,9 km/h (1 Bft) NO 315 0 min 0 W/m 6,9 C 9,8 C 4,7 km/h (1 Bft)
02/12/2011 16:35 9,6 C 82 % 1017,9 hPa 0,0 mm 1,1 km/h (1 Bft) N-NO 337 0 min 0 W/m 6,7 C 9,6 C 1,1 km/h (1 Bft)
02/12/2011 16:40 9,5 C 82 % 1017,9 hPa 0,0 mm 0,4 km/h (0 Bft) NO 315 0 min 0 W/m 6,6 C 9,5 C 3,2 km/h (1 Bft)
02/12/2011 16:45 9,4 C 82 % 1018,0 hPa 0,0 mm 1,1 km/h (1 Bft) N-NO 337 0 min 0 W/m 6,5 C 9,4 C 3,6 km/h (1 Bft)
02/12/2011 16:50 9,2 C 82 % 1018,0 hPa 0,0 mm 1,4 km/h (1 Bft) N-NO 337 0 min 0 W/m 6,3 C 9,2 C 4,3 km/h (1 Bft)
02/12/2011 16:55 9,0 C 82 % 1018,1 hPa 0,0 mm 0,4 km/h (0 Bft) NO 315 0 min 0 W/m 6,1 C 9,0 C 3,2 km/h (1 Bft)
02/12/2011 17:00 8,8 C 82 % 1018,1 hPa 0,0 mm 0,0 km/h (0 Bft) NO 315 0 min 0 W/m 5,9 C 8,8 C 0,0 km/h (0 Bft)
02/12/2011 17:05 8,6 C 83 % 1018,2 hPa 0,0 mm 0,0 km/h (0 Bft) NO 315 0 min 0 W/m 5,9 C 8,6 C 0,0 km/h (0 Bft)
02/12/2011 17:10 8,3 C 83 % 1018,2 hPa 0,0 mm 0,0 km/h (0 Bft) NO 315 0 min 0 W/m 5,6 C 8,3 C 1,8 km/h (1 Bft)
02/12/2011 17:15 8,1 C 84 % 1018,3 hPa 0,0 mm 0,4 km/h (0 Bft) NO 315 0 min 0 W/m 5,6 C 8,1 C 3,6 km/h (1 Bft)
02/12/2011 17:20 7,8 C 84 % 1018,4 hPa 0,0 mm 0,0 km/h (0 Bft) NO 315 0 min 0 W/m 5,3 C 7,8 C 2,9 km/h (1 Bft)
02/12/2011 17:25 7,7 C 84 % 1018,5 hPa 0,0 mm 2,2 km/h (1 Bft) N-NO 337 0 min 0 W/m 5,2 C 7,7 C 8,6 km/h (2 Bft)
02/12/2011 17:30 7,5 C 85 % 1018,7 hPa 0,0 mm 3,2 km/h (1 Bft) NO 315 0 min 0 W/m 5,1 C 7,5 C 8,3 km/h (2 Bft)
02/12/2011 17:35 7,4 C 85 % 1018,8 hPa 0,0 mm 1,1 km/h (1 Bft) N-NO 337 0 min 0 W/m 5,0 C 7,4 C 1,1 km/h (1 Bft)
02/12/2011 17:40 7,3 C 85 % 1018,8 hPa 0,0 mm 0,4 km/h (0 Bft) NO 315 0 min 0 W/m 4,9 C 7,3 C 8,3 km/h (2 Bft)
02/12/2011 17:45 7,1 C 85 % 1018,7 hPa 0,0 mm 1,1 km/h (1 Bft) N-NO 337 0 min 0 W/m 4,8 C 7,1 C 4,0 km/h (1 Bft)
02/12/2011 17:50 7,1 C 86 % 1018,7 hPa 0,0 mm 0,0 km/h (0 Bft) NO 315 0 min 0 W/m 4,9 C 7,1 C 0,0 km/h (0 Bft)
02/12/2011 17:55 6,9 C 86 % 1018,8 hPa 0,0 mm 0,0 km/h (0 Bft) NO 315 0 min 0 W/m 4,7 C 6,9 C 0,0 km/h (0 Bft)
02/12/2011 18:00 6,8 C 86 % 1018,8 hPa 0,0 mm 0,0 km/h (0 Bft) NO 315 0 min 0 W/m 4,6 C 6,8 C 0,0 km/h (0 Bft)
02/12/2011 18:05 6,7 C 86 % 1018,9 hPa 0,0 mm 1,4 km/h (1 Bft) NO 315 0 min 0 W/m 4,5 C 6,7 C 7,9 km/h (2 Bft)
02/12/2011 18:10 6,6 C 86 % 1018,9 hPa 0,0 mm 0,0 km/h (0 Bft) O-NO 292 0 min 0 W/m 4,4 C 6,6 C 0,0 km/h (0 Bft)
02/12/2011 18:15 6,5 C 86 % 1019,0 hPa 0,0 mm 0,0 km/h (0 Bft) O-NO 292 0 min 0 W/m 4,3 C 6,5 C 0,0 km/h (0 Bft)
02/12/2011 18:20 6,4 C 86 % 1019,0 hPa 0,0 mm 0,0 km/h (0 Bft) NO 315 0 min 0 W/m 4,2 C 6,4 C 0,0 km/h (0 Bft)
02/12/2011 18:25 6,3 C 86 % 1019,1 hPa 0,0 mm 0,0 km/h (0 Bft) O-NO 292 0 min 0 W/m 4,1 C 6,3 C 0,0 km/h (0 Bft)
02/12/2011 18:30 6,3 C 87 % 1019,2 hPa 0,0 mm 0,0 km/h (0 Bft) O-NO 292 0 min 0 W/m 4,3 C 6,3 C 0,0 km/h (0 Bft)
02/12/2011 18:35 6,2 C 87 % 1019,3 hPa 0,0 mm 0,0 km/h (0 Bft) O-NO 292 0 min 0 W/m 4,2 C 6,2 C 0,0 km/h (0 Bft)
02/12/2011 18:40 6,1 C 87 % 1019,2 hPa 0,0 mm 0,0 km/h (0 Bft) O-NO 292 0 min 0 W/m 4,1 C 6,1 C 0,0 km/h (0 Bft)
02/12/2011 18:45 5,9 C 87 % 1019,3 hPa 0,0 mm 0,0 km/h (0 Bft) O 270 0 min 0 W/m 3,9 C 5,9 C 0,0 km/h (0 Bft)
02/12/2011 18:50 5,8 C 88 % 1019,3 hPa 0,0 mm 0,0 km/h (0 Bft) O 270 0 min 0 W/m 4,0 C 5,8 C 0,0 km/h (0 Bft)
02/12/2011 18:55 5,8 C 88 % 1019,4 hPa 0,0 mm 0,0 km/h (0 Bft) O 270 0 min 0 W/m 4,0 C 5,8 C 0,0 km/h (0 Bft)
02/12/2011 19:00 5,7 C 88 % 1019,5 hPa 0,0 mm 0,0 km/h (0 Bft) O 270 0 min 0 W/m 3,9 C 5,7 C 0,0 km/h (0 Bft)
02/12/2011 19:05 5,6 C 88 % 1019,5 hPa 0,0 mm 0,0 km/h (0 Bft) O 270 0 min 0 W/m 3,8 C 5,6 C 0,0 km/h (0 Bft)
02/12/2011 19:10 5,5 C 88 % 1019,6 hPa 0,0 mm 0,0 km/h (0 Bft) O 270 0 min 0 W/m 3,7 C 5,5 C 0,0 km/h (0 Bft)
02/12/2011 19:15 5,4 C 89 % 1019,6 hPa 0,0 mm 0,0 km/h (0 Bft) O 270 0 min 0 W/m 3,7 C 5,4 C 0,0 km/h (0 Bft)
02/12/2011 19:20 5,4 C 89 % 1019,6 hPa 0,0 mm 0,0 km/h (0 Bft) O 270 0 min 0 W/m 3,7 C 5,4 C 0,0 km/h (0 Bft)
02/12/2011 19:25 5,4 C 89 % 1019,6 hPa 0,0 mm 0,0 km/h (0 Bft) O 270 0 min 0 W/m 3,7 C 5,4 C 0,0 km/h (0 Bft)
02/12/2011 19:30 5,3 C 89 % 1019,5 hPa 0,0 mm 0,0 km/h (0 Bft) O 270 0 min 0 W/m 3,6 C 5,3 C 0,0 km/h (0 Bft)
02/12/2011 19:35 5,3 C 89 % 1019,6 hPa 0,0 mm 0,0 km/h (0 Bft) O 270 0 min 0 W/m 3,6 C 5,3 C 0,0 km/h (0 Bft)
02/12/2011 19:40 5,3 C 89 % 1019,6 hPa 0,0 mm 0,0 km/h (0 Bft) O 270 0 min 0 W/m 3,6 C 5,3 C 0,0 km/h (0 Bft)
02/12/2011 19:45 5,2 C 89 % 1019,7 hPa 0,0 mm 0,0 km/h (0 Bft) O 270 0 min 0 W/m 3,5 C 5,2 C 0,0 km/h (0 Bft)
02/12/2011 19:50 5,1 C 89 % 1019,8 hPa 0,0 mm 0,0 km/h (0 Bft) O 270 0 min 0 W/m 3,4 C 5,1 C 0,0 km/h (0 Bft)
02/12/2011 19:55 5,1 C 89 % 1019,8 hPa 0,0 mm 0,0 km/h (0 Bft) O 270 0 min 0 W/m 3,4 C 5,1 C 0,0 km/h (0 Bft)
02/12/2011 20:00 5,1 C 90 % 1019,8 hPa 0,0 mm 0,0 km/h (0 Bft) O 270 0 min 0 W/m 3,6 C 5,1 C 0,0 km/h (0 Bft)
02/12/2011 20:05 5,1 C 90 % 1020,0 hPa 0,0 mm 0,0 km/h (0 Bft) O 270 0 min 0 W/m 3,6 C 5,1 C 0,0 km/h (0 Bft)
02/12/2011 20:10 5,1 C 90 % 1019,9 hPa 0,0 mm 0,0 km/h (0 Bft) O 270 0 min 0 W/m 3,6 C 5,1 C 0,0 km/h (0 Bft)
02/12/2011 20:15 5,1 C 90 % 1019,9 hPa 0,0 mm 0,0 km/h (0 Bft) O 270 0 min 0 W/m 3,6 C 5,1 C 0,0 km/h (0 Bft)
02/12/2011 20:20 5,1 C 90 % 1019,9 hPa 0,0 mm 0,0 km/h (0 Bft) O 270 0 min 0 W/m 3,6 C 5,1 C 0,0 km/h (0 Bft)
02/12/2011 20:25 5,1 C 90 % 1020,0 hPa 0,0 mm 0,0 km/h (0 Bft) O 270 0 min 0 W/m 3,6 C 5,1 C 0,0 km/h (0 Bft)
02/12/2011 20:30 5,1 C 90 % 1020,0 hPa 0,0 mm 0,0 km/h (0 Bft) O 270 0 min 0 W/m 3,6 C 5,1 C 0,0 km/h (0 Bft)
02/12/2011 20:35 5,0 C 90 % 1020,0 hPa 0,0 mm 0,0 km/h (0 Bft) O 270 0 min 0 W/m 3,5 C 5,0 C 0,0 km/h (0 Bft)
02/12/2011 20:40 4,9 C 90 % 1020,0 hPa 0,0 mm 0,0 km/h (0 Bft) O 270 0 min 0 W/m 3,4 C 4,9 C 0,0 km/h (0 Bft)
02/12/2011 20:45 4,9 C 90 % 1020,0 hPa 0,0 mm 0,0 km/h (0 Bft) O 270 0 min 0 W/m 3,4 C 4,9 C 0,0 km/h (0 Bft)
02/12/2011 20:50 4,8 C 90 % 1020,1 hPa 0,0 mm 0,0 km/h (0 Bft) O 270 0 min 0 W/m 3,3 C 4,8 C 0,0 km/h (0 Bft)
02/12/2011 20:55 4,8 C 90 % 1020,1 hPa 0,0 mm 0,0 km/h (0 Bft) O 270 0 min 0 W/m 3,3 C 4,8 C 0,0 km/h (0 Bft)
02/12/2011 21:00 4,8 C 90 % 1020,0 hPa 0,0 mm 0,0 km/h (0 Bft) O 270 0 min 0 W/m 3,3 C 4,8 C 0,0 km/h (0 Bft)
02/12/2011 21:05 4,8 C 90 % 1020,2 hPa 0,0 mm 0,0 km/h (0 Bft) O 270 0 min 0 W/m 3,3 C 4,8 C 0,0 km/h (0 Bft)
02/12/2011 21:10 4,8 C 91 % 1020,2 hPa 0,0 mm 0,0 km/h (0 Bft) O 270 0 min 0 W/m 3,5 C 4,8 C 0,0 km/h (0 Bft)
02/12/2011 21:15 4,8 C 91 % 1020,3 hPa 0,0 mm 0,0 km/h (0 Bft) O 270 0 min 0 W/m 3,5 C 4,8 C 0,0 km/h (0 Bft)
02/12/2011 21:20 4,9 C 91 % 1020,4 hPa 0,0 mm 0,0 km/h (0 Bft) O 270 0 min 0 W/m 3,6 C 4,9 C 0,0 km/h (0 Bft)
02/12/2011 21:25 4,9 C 91 % 1020,5 hPa 0,0 mm 0,0 km/h (0 Bft) O 270 0 min 0 W/m 3,6 C 4,9 C 0,0 km/h (0 Bft)
02/12/2011 21:30 5,1 C 92 % 1020,4 hPa 0,0 mm 0,0 km/h (0 Bft) O 270 0 min 0 W/m 3,9 C 5,1 C 0,0 km/h (0 Bft)
02/12/2011 21:35 5,1 C 92 % 1020,6 hPa 0,0 mm 0,0 km/h (0 Bft) O 270 0 min 0 W/m 3,9 C 5,1 C 0,0 km/h (0 Bft)
02/12/2011 21:40 5,1 C 92 % 1020,6 hPa 0,0 mm 0,0 km/h (0 Bft) O 270 0 min 0 W/m 3,9 C 5,1 C 0,0 km/h (0 Bft)
02/12/2011 21:45 5,2 C 92 % 1020,6 hPa 0,0 mm 0,0 km/h (0 Bft) O 270 0 min 0 W/m 4,0 C 5,2 C 0,0 km/h (0 Bft)
02/12/2011 21:50 5,1 C 92 % 1020,6 hPa 0,0 mm 0,0 km/h (0 Bft) O 270 0 min 0 W/m 3,9 C 5,1 C 0,0 km/h (0 Bft)
02/12/2011 21:55 5,1 C 92 % 1020,6 hPa 0,0 mm 0,0 km/h (0 Bft) O 270 0 min 0 W/m 3,9 C 5,1 C 0,0 km/h (0 Bft)
02/12/2011 22:00 5,1 C 92 % 1020,6 hPa 0,0 mm 0,0 km/h (0 Bft) SO 225 0 min 0 W/m 3,9 C 5,1 C 0,0 km/h (0 Bft)
02/12/2011 22:05 5,1 C 92 % 1020,6 hPa 0,0 mm 0,0 km/h (0 Bft) SO 225 0 min 0 W/m 3,9 C 5,1 C 0,0 km/h (0 Bft)
02/12/2011 22:10 5,1 C 92 % 1020,6 hPa 0,0 mm 0,0 km/h (0 Bft) S-SO 202 0 min 0 W/m 3,9 C 5,1 C 0,0 km/h (0 Bft)
02/12/2011 22:15 5,1 C 92 % 1020,6 hPa 0,0 mm 0,0 km/h (0 Bft) S-SO 202 0 min 0 W/m 3,9 C 5,1 C 0,0 km/h (0 Bft)
02/12/2011 22:20 5,1 C 92 % 1020,7 hPa 0,0 mm 0,0 km/h (0 Bft) N 360 0 min 0 W/m 3,9 C 5,1 C 0,0 km/h (0 Bft)
02/12/2011 22:25 5,1 C 93 % 1020,7 hPa 0,0 mm 0,0 km/h (0 Bft) S-SO 202 0 min 0 W/m 4,1 C 5,1 C 0,0 km/h (0 Bft)
02/12/2011 22:30 5,1 C 93 % 1020,6 hPa 0,0 mm 0,0 km/h (0 Bft) SO 225 0 min 0 W/m 4,1 C 5,1 C 0,0 km/h (0 Bft)
02/12/2011 22:35 5,1 C 93 % 1020,8 hPa 0,0 mm 0,0 km/h (0 Bft) SO 225 0 min 0 W/m 4,1 C 5,1 C 0,0 km/h (0 Bft)
02/12/2011 22:40 5,1 C 93 % 1020,7 hPa 0,0 mm 0,0 km/h (0 Bft) S-SO 202 0 min 0 W/m 4,1 C 5,1 C 0,0 km/h (0 Bft)
02/12/2011 22:45 5,1 C 93 % 1020,8 hPa 0,0 mm 0,0 km/h (0 Bft) SO 225 0 min 0 W/m 4,1 C 5,1 C 0,0 km/h (0 Bft)
02/12/2011 22:50 5,2 C 93 % 1020,8 hPa 0,0 mm 0,0 km/h (0 Bft) SO 225 0 min 0 W/m 4,2 C 5,2 C 0,0 km/h (0 Bft)
02/12/2011 22:55 5,1 C 93 % 1020,8 hPa 0,0 mm 0,0 km/h (0 Bft) SO 225 0 min 0 W/m 4,1 C 5,1 C 0,0 km/h (0 Bft)
02/12/2011 23:00 5,2 C 93 % 1020,8 hPa 0,0 mm 0,0 km/h (0 Bft) SO 225 0 min 0 W/m 4,2 C 5,2 C 0,0 km/h (0 Bft)
02/12/2011 23:05 5,1 C 93 % 1020,9 hPa 0,0 mm 0,0 km/h (0 Bft) SO 225 0 min 0 W/m 4,1 C 5,1 C 0,0 km/h (0 Bft)
02/12/2011 23:10 5,1 C 93 % 1020,7 hPa 0,0 mm 0,0 km/h (0 Bft) SO 225 0 min 0 W/m 4,1 C 5,1 C 0,0 km/h (0 Bft)
02/12/2011 23:15 5,1 C 93 % 1020,9 hPa 0,0 mm 0,0 km/h (0 Bft) SO 225 0 min 0 W/m 4,1 C 5,1 C 0,0 km/h (0 Bft)
02/12/2011 23:20 5,1 C 93 % 1020,8 hPa 0,0 mm 0,0 km/h (0 Bft) SO 225 0 min 0 W/m 4,1 C 5,1 C 0,0 km/h (0 Bft)
02/12/2011 23:25 5,1 C 93 % 1020,9 hPa 0,0 mm 0,0 km/h (0 Bft) S-SO 202 0 min 0 W/m 4,1 C 5,1 C 0,0 km/h (0 Bft)
02/12/2011 23:30 5,0 C 93 % 1020,9 hPa 0,0 mm 0,0 km/h (0 Bft) S-SO 202 0 min 0 W/m 4,0 C 5,0 C 0,0 km/h (0 Bft)
_ Min-Heure 21:15 03:10 01:25 - 23:30 - - - - 21:05 21:15 23:30
Minimum _ 4,8 C 77 % 1010,7 hPa - 0,0 km/h (0 Bft) - - - - 3,3 C 4,8 C 0,0 km/h (0 Bft)
_ Max-Heure 14:55 11:10 23:30 08:25 02:40 - - 23:30 23:30 13:30 14:55 02:40
Maximum _ 11,8 C 94 % 1020,9 hPa 0,1 mm 16,6 km/h
S-SO (3 Bft)
- - 0 min 0 W/m 9,5 C 11,8 C 22,0 km/h
S-SO (4 Bft)
Moyenne _ 8,6 C 87 % 1015,7 hPa #2,7 mm 2,7 km/h (1 Bft) SO - #0 min. 0 W/m 6,6 C 8,6 C 4,3 km/h (1 Bft)
Saint Bonnet de Bellac- Haute Vienne - France